Weather History for Algona, IA

Change the Weather History Date:

Thursday, June 21, 2012

  Actual Average Record
Temperature  
Mean Temperature 68 °F -  
Max Temperature 77 °F 79 °F 87 °F (2007)
Min Temperature 59 °F 58 °F 53 °F (2004)
Cooling Degree Days 3    
Growing Degree Days 18 (Base 50)    
Moisture  
Dew Point 56 °F    
Average Humidity 71    
Maximum Humidity 100    
Minimum Humidity 39    
Precipitation  
Precipitation 0.00 in - - ()
Sea Level Pressure  
Sea Level Pressure 30.02 in    
Wind  
Wind Speed 8 mph (WNW)    
Max Wind Speed 15 mph    
Max Gust Speed 22 mph    
Visibility 10 miles    
Events      
Averages and records for this station are not official NWS values.
T = Trace of Precipitation, MM = Missing Value Source: NWS Daily Summary

Daily Weather History Graph

Daily Weather History Graph

Search for Another Location

Airport:

Trip Planner

Search our weather history database for the weather conditions in past years. The results will help you decide how hot, cold, wet, or windy it might be!

Date:

Astronomy

Jun. 21, 2012 Rise Set
Actual Time 5:37 AM CDT 9:00 PM CDT
Civil Twilight 5:02 AM CDT 9:35 PM CDT
Nautical Twilight 4:16 AM CDT 10:21 PM CDT
Astronomical Twilight 3:18 AM CDT 11:19 PM CDT
Moon 7:40 AM CDT 10:19 PM CDT
Length of Visible Light 16h 33m
Length of Day
15h 22m
Waxing Crescent, 4% of the Moon is Illuminated
Jun 21
Waxing Crescent
Jun 26
First Quarter
Jul 3
Full
Jul 10
Last Quarter
Jul 18
New

Hourly Weather History & Observations

Time (CDT) Temp. Dew Point Humidity Pressure Visibility Wind Dir Wind Speed Gust Speed Precip Events Conditions
12:15 AM 60.8 °F 59.0 °F 94% 29.97 in 8.0 mi SW 5.8 mph - N/A   Clear
12:35 AM 59.0 °F 59.0 °F 100% 29.97 in 7.0 mi SW 4.6 mph - N/A   Clear
12:55 AM 59.0 °F 59.0 °F 100% 29.97 in 7.0 mi WSW 5.8 mph - N/A   Clear
1:15 AM 59.0 °F 59.0 °F 100% 29.97 in 10.0 mi WSW 6.9 mph - N/A   Clear
1:35 AM 59.0 °F 59.0 °F 100% 29.96 in 10.0 mi SW 4.6 mph - N/A   Clear
1:55 AM 59.0 °F 59.0 °F 100% 29.96 in 10.0 mi SW 5.8 mph - N/A   Clear
2:15 AM 59.0 °F 59.0 °F 100% 29.97 in 10.0 mi WSW 8.1 mph - N/A   Clear
2:35 AM 59.0 °F 59.0 °F 100% 29.96 in 10.0 mi SW 6.9 mph - N/A   Clear
2:55 AM 59.0 °F 59.0 °F 100% 29.96 in 10.0 mi SW 9.2 mph - N/A   Clear
3:15 AM 59.0 °F 57.2 °F 94% 29.97 in 10.0 mi WSW 8.1 mph - N/A   Clear
3:35 AM 59.0 °F 57.2 °F 94% 29.98 in 9.0 mi WSW 9.2 mph - N/A   Clear
3:55 AM 59.0 °F 57.2 °F 94% 29.98 in 10.0 mi WSW 6.9 mph - N/A   Clear
4:15 AM 59.0 °F 57.2 °F 94% 29.97 in 10.0 mi West 9.2 mph - N/A   Clear
4:35 AM 59.0 °F 57.2 °F 94% 29.97 in 10.0 mi WSW 8.1 mph - N/A   Clear
4:55 AM 59.0 °F 57.2 °F 94% 29.97 in 10.0 mi West 8.1 mph - N/A   Clear
5:15 AM 59.0 °F 57.2 °F 94% 29.97 in 10.0 mi West 8.1 mph - N/A   Clear
5:35 AM 59.0 °F 57.2 °F 94% 29.98 in 10.0 mi West 9.2 mph - N/A   Clear
5:55 AM 59.0 °F 57.2 °F 94% 29.98 in 10.0 mi West 8.1 mph - N/A   Clear
6:15 AM 59.0 °F 57.2 °F 94% 29.99 in 10.0 mi West 8.1 mph - N/A   Clear
6:35 AM 59.0 °F 57.2 °F 94% 30.00 in 10.0 mi West 8.1 mph - N/A   Clear
6:55 AM 60.8 °F 57.2 °F 88% 30.01 in 10.0 mi WNW 9.2 mph - N/A   Clear
7:35 AM 62.6 °F 57.2 °F 82% 30.02 in 10.0 mi NW 8.1 mph - N/A   Clear
7:55 AM 62.6 °F 57.2 °F 82% 30.03 in 10.0 mi NW 12.7 mph - N/A   Clear
8:15 AM 64.4 °F 57.2 °F 77% 30.04 in 10.0 mi NW 12.7 mph - N/A   Clear
8:35 AM 64.4 °F 57.2 °F 77% 30.04 in 10.0 mi NW 10.4 mph 17.3 mph N/A   Clear
8:55 AM 66.2 °F 55.4 °F 68% 30.05 in 10.0 mi NW 12.7 mph - N/A   Clear
9:15 AM 66.2 °F 57.2 °F 73% 30.06 in 10.0 mi NNW 9.2 mph 17.3 mph N/A   Clear
9:35 AM 68.0 °F 55.4 °F 64% 30.06 in 10.0 mi NNW 12.7 mph - N/A   Clear
9:55 AM 68.0 °F 55.4 °F 64% 30.06 in 10.0 mi NW 13.8 mph 21.9 mph N/A   Clear
10:15 AM 68.0 °F 55.4 °F 64% 30.06 in 10.0 mi NNW 12.7 mph 19.6 mph N/A   Clear
10:35 AM 68.0 °F 55.4 °F 64% 30.07 in 10.0 mi NW 13.8 mph 19.6 mph N/A   Clear
10:55 AM 69.8 °F 55.4 °F 60% 30.06 in 10.0 mi NNW 13.8 mph - N/A   Clear
11:15 AM 69.8 °F 55.4 °F 60% 30.07 in 10.0 mi NW 12.7 mph - N/A   Clear
11:35 AM 69.8 °F 55.4 °F 60% 30.07 in 10.0 mi NW 12.7 mph 19.6 mph N/A   Clear
11:55 AM 71.6 °F 55.4 °F 57% 30.07 in 10.0 mi NW 11.5 mph 18.4 mph N/A   Clear
12:15 PM 71.6 °F 55.4 °F 57% 30.07 in 10.0 mi NW 12.7 mph 19.6 mph N/A   Clear
12:35 PM 71.6 °F 55.4 °F 57% 30.07 in 10.0 mi NNW 13.8 mph - N/A   Clear
12:55 PM 73.4 °F 53.6 °F 50% 30.07 in 10.0 mi NW 13.8 mph 20.7 mph N/A   Clear
1:15 PM 73.4 °F 53.6 °F 50% 30.06 in 10.0 mi NW 13.8 mph 20.7 mph N/A   Clear
1:35 PM 73.4 °F 53.6 °F 50% 30.06 in 10.0 mi NNW 15.0 mph - N/A   Clear
1:55 PM 73.4 °F 53.6 °F 50% 30.06 in 10.0 mi NW 11.5 mph - N/A   Clear
2:15 PM 75.2 °F 53.6 °F 47% 30.06 in 10.0 mi NW 15.0 mph 20.7 mph N/A   Clear
2:35 PM 75.2 °F 53.6 °F 47% 30.05 in 10.0 mi WNW 13.8 mph - N/A   Clear
2:55 PM 75.2 °F 53.6 °F 47% 30.05 in 10.0 mi NW 13.8 mph - N/A   Clear
3:15 PM 75.2 °F 53.6 °F 47% 30.05 in 10.0 mi NNW 9.2 mph 16.1 mph N/A   Partly Cloudy
3:35 PM 75.2 °F 51.8 °F 44% 30.05 in 10.0 mi NW 11.5 mph 19.6 mph N/A   Clear
3:55 PM 75.2 °F 51.8 °F 44% 30.04 in 10.0 mi NNW 10.4 mph 16.1 mph N/A   Clear
4:15 PM 75.2 °F 51.8 °F 44% 30.04 in 10.0 mi NW 12.7 mph - N/A   Clear
4:35 PM 75.2 °F 51.8 °F 44% 30.03 in 10.0 mi North 6.9 mph 18.4 mph N/A   Clear
4:55 PM 75.2 °F 51.8 °F 44% 30.03 in 10.0 mi North 6.9 mph 13.8 mph N/A   Clear
5:15 PM 75.2 °F 51.8 °F 44% 30.03 in 10.0 mi NNW 6.9 mph 12.7 mph N/A   Clear
5:35 PM 77.0 °F 50.0 °F 39% 30.03 in 10.0 mi NW 8.1 mph 13.8 mph N/A   Clear
5:55 PM 77.0 °F 50.0 °F 39% 30.03 in 10.0 mi NNW 6.9 mph 13.8 mph N/A   Clear
6:15 PM 77.0 °F 50.0 °F 39% 30.02 in 10.0 mi NNW 8.1 mph - N/A   Clear
6:35 PM 77.0 °F 51.8 °F 41% 30.02 in 10.0 mi NW 6.9 mph - N/A   Clear
6:55 PM 77.0 °F 51.8 °F 41% 30.02 in 10.0 mi NNW 6.9 mph - N/A   Clear
7:15 PM 75.2 °F 53.6 °F 47% 30.03 in 10.0 mi NNW 5.8 mph - N/A   Clear
7:35 PM 75.2 °F 53.6 °F 47% 30.03 in 10.0 mi NNW 4.6 mph - N/A   Clear
7:55 PM 73.4 °F 57.2 °F 57% 30.03 in 10.0 mi NNW 4.6 mph - N/A   Clear
8:15 PM 73.4 °F 59.0 °F 61% 30.02 in 10.0 mi North 4.6 mph - N/A   Clear
8:35 PM 71.6 °F 59.0 °F 64% 30.02 in 10.0 mi NNW 4.6 mph - N/A   Clear
8:55 PM 71.6 °F 59.0 °F 64% 30.03 in 10.0 mi NW 4.6 mph - N/A   Clear
9:15 PM 71.6 °F 57.2 °F 60% 30.03 in 10.0 mi NNW 3.5 mph - N/A   Clear
9:35 PM 66.2 °F 59.0 °F 78% 30.04 in 10.0 mi Calm Calm - N/A   Clear
9:55 PM 64.4 °F 60.8 °F 88% 30.04 in 10.0 mi West 3.5 mph - N/A   Clear
10:15 PM 64.4 °F 59.0 °F 83% 30.05 in 10.0 mi West 3.5 mph - N/A   Clear
10:35 PM 64.4 °F 59.0 °F 83% 30.05 in 10.0 mi West 3.5 mph - N/A   Clear
10:55 PM 62.6 °F 59.0 °F 88% 30.05 in 10.0 mi West 4.6 mph - N/A   Clear
11:15 PM 62.6 °F 57.2 °F 82% 30.05 in 10.0 mi SW 4.6 mph - N/A   Clear
11:35 PM 60.8 °F 57.2 °F 88% 30.05 in 10.0 mi SW 5.8 mph - N/A   Clear
11:55 PM 60.8 °F 57.2 °F 88% 30.06 in 10.0 mi SW 5.8 mph - N/A   Clear